Location: ?
(35.4996°N, 139.3166°E)
Time: 10:02:31
(UTC+00:00)

Cosmos 2297 Rocket - Visible Passes

Search period start: 24 July 2024 00:00
Search period end: 03 August 2024 00:00
Orbit: 838 x 844 km, 71.0° (Epoch: 23 July)

Date Brightness Start Highest point End Pass type
(mag) Time Alt. Az. Time Alt. Az. Time Alt. Az.
24 Jul 4.5 14:37:20 10° NNE 14:40:30 15° NE 14:41:43 14° ENE visible
24 Jul 2.8 16:19:27 10° NNW 16:23:28 47° NW 16:23:28 47° NW visible
25 Jul 4.5 14:22:12 10° NNE 14:25:09 14° NE 14:26:07 14° ENE visible
25 Jul 3.1 16:04:08 10° NNW 16:07:52 43° NNW 16:07:52 43° NNW visible
26 Jul 4.5 14:07:06 10° NNE 14:09:47 13° NE 14:10:35 13° ENE visible
26 Jul 3.2 15:48:49 10° NNW 15:52:19 40° NNW 15:52:19 40° NNW visible
27 Jul 4.6 13:52:02 10° NNE 13:54:25 13° NE 13:55:07 12° ENE visible
27 Jul 3.4 15:33:30 10° NNW 15:36:52 38° NNW 15:36:52 38° NNW visible
28 Jul 4.6 13:37:02 10° NNE 13:39:03 12° NE 13:39:42 12° ENE visible
28 Jul 3.5 15:18:10 10° NNW 15:21:27 36° NNW 15:21:27 36° NNW visible
29 Jul 4.6 13:22:07 10° NE 13:23:41 11° NE 13:24:20 11° ENE visible
29 Jul 3.5 15:02:52 10° NNW 15:06:06 36° NNW 15:06:06 36° NNW visible
30 Jul 4.6 13:07:24 10° NE 13:08:18 10° NE 13:09:01 10° ENE visible
30 Jul 3.6 14:47:34 10° NNW 14:50:47 35° NNW 14:50:47 35° NNW visible
31 Jul 3.6 14:32:16 10° NNW 14:35:30 35° N 14:35:30 35° N visible
01 Aug 3.5 14:16:58 10° NNW 14:20:17 36° N 14:20:17 36° N visible
02 Aug 3.5 14:01:41 10° NNW 14:05:04 36° N 14:05:04 36° N visible
